This is the latest recevied weather packets stored in our database for station/object KF4PPJ. If no packets are shown the sender has not sent any weather packets the latest 10 day(s).
| Time | Temp. | Humidity | Pressure | Rain* | Wind** | Luminosity | Snow |
|---|---|---|---|---|---|---|---|
| 1777862216 | 23.89° C | 42% | 1011.5 hPa | 0 mm | - | 24 W/m² | - |
| 1777861912 | 23.89° C | 44% | 1011.5 hPa | 0 mm | - | 26 W/m² | - |
| 1777861608 | 24.44° C | 44% | 1011.5 hPa | 0 mm | - | 30 W/m² | - |
| 1777861304 | 24.44° C | 42% | 1011.4 hPa | 0 mm | - | 31 W/m² | - |
| 1777861002 | 25° C | 41% | 1011.4 hPa | 0 mm | - | 33 W/m² | - |
| 1777860699 | 25° C | 41% | 1011.6 hPa | 0 mm | - | 34 W/m² | - |
| 1777860396 | 25.56° C | 40% | 1011.7 hPa | 0 mm | - | 35 W/m² | - |
| 1777860092 | 25.56° C | 40% | 1011.5 hPa | 0 mm | - | 40 W/m² | - |
| 1777859789 | 25.56° C | 40% | 1011.4 hPa | 0 mm | - | 38 W/m² | - |
| 1777859485 | 26.11° C | 40% | 1011.7 hPa | 0 mm | - | 41 W/m² | - |
| 1777859181 | 26.11° C | 40% | 1011.6 hPa | 0 mm | - | 42 W/m² | - |
| 1777858878 | 26.67° C | 39% | 1011.6 hPa | 0 mm | - | 56 W/m² | - |
| 1777858575 | 26.67° C | 38% | 1011.6 hPa | 0 mm | - | 44 W/m² | - |
| 1777858272 | 27.22° C | 37% | 1011.6 hPa | 0 mm | - | 46 W/m² | - |
| 1777857970 | 27.22° C | 37% | 1011.9 hPa | 0 mm | - | 50 W/m² | - |
| 1777857668 | 27.78° C | 37% | 1011.6 hPa | 0 mm | - | 207 W/m² | - |
| 1777857364 | 27.78° C | 36% | 1011.8 hPa | 0 mm | - | 249 W/m² | - |
| 1777857060 | 27.78° C | 36% | 1011.7 hPa | 0 mm | - | 229 W/m² | - |
| 1777856756 | 27.78° C | 38% | 1011.9 hPa | 0 mm | - | 275 W/m² | - |
| 1777856452 | 27.78° C | 36% | 1011.7 hPa | 0 mm | - | 287 W/m² | - |
| 1777856149 | 27.78° C | 37% | 1011.9 hPa | 0 mm | - | 300 W/m² | - |
| 1777855846 | 28.33° C | 37% | 1012.1 hPa | 0 mm | - | 288 W/m² | - |
| 1777855544 | 28.89° C | 36% | 1012 hPa | 0 mm | - | 306 W/m² | - |
| 1777855241 | 28.89° C | 36% | 1012.2 hPa | 0 mm | - | 341 W/m² | - |
| 1777854937 | 28.89° C | 37% | 1012 hPa | 0 mm | - | 333 W/m² | - |
* Rain latest hour (hover to see other rain measurements)
** Current wind speed in m/s (hover to see current wind gust speed)